Year,Month,Day,Hour,Minute,Value (Times are PST for windgust in km/hr)
2016,10,07,00,00,33.80
2016,10,07,00,01,45.10
2016,10,07,00,02,43.50
2016,10,07,00,03,45.10
2016,10,07,00,04,24.20
2016,10,07,00,05,19.30
2016,10,07,00,06,24.20
2016,10,07,00,07,49.90
2016,10,07,00,08,51.50
2016,10,07,00,09,33.80
2016,10,07,00,10,22.50
2016,10,07,00,11,25.70
2016,10,07,00,12,38.60
2016,10,07,00,13,49.90
2016,10,07,00,14,45.10
2016,10,07,00,15,53.10
2016,10,07,00,16,33.80
2016,10,07,00,17,43.50
2016,10,07,00,18,27.40
2016,10,07,00,19,43.50
2016,10,07,00,20,49.90
2016,10,07,00,21,32.20
2016,10,07,00,22,56.30
2016,10,07,00,23,37.00
2016,10,07,00,24,41.80
2016,10,07,00,25,32.20
2016,10,07,00,26,40.20
2016,10,07,00,27,38.60
2016,10,07,00,28,32.20
2016,10,07,00,29,40.20
2016,10,07,00,30,61.20
2016,10,07,00,31,46.70
2016,10,07,00,32,45.10
2016,10,07,00,33,41.80
2016,10,07,00,34,40.20
2016,10,07,00,35,37.00
2016,10,07,00,36,27.40
2016,10,07,00,37,46.70
2016,10,07,00,38,33.80
2016,10,07,00,39,24.20
2016,10,07,00,40,38.60
2016,10,07,00,41,45.10
2016,10,07,00,42,37.00
2016,10,07,00,43,43.50
2016,10,07,00,44,27.40
2016,10,07,00,45,35.40
2016,10,07,00,46,48.30
2016,10,07,00,47,32.20
2016,10,07,00,48,57.90
2016,10,07,00,49,67.60
2016,10,07,00,50,33.80
2016,10,07,00,51,30.60
2016,10,07,00,52,46.70
2016,10,07,00,53,46.70
2016,10,07,00,54,35.40
2016,10,07,00,55,33.80
2016,10,07,00,56,32.20
2016,10,07,00,57,25.70
2016,10,07,00,58,51.50
2016,10,07,00,59,35.40
2016,10,07,01,00,30.60
2016,10,07,01,01,38.60
2016,10,07,01,02,38.60
2016,10,07,01,03,32.20
2016,10,07,01,04,25.70
2016,10,07,01,05,41.80
2016,10,07,01,06,43.50
2016,10,07,01,07,37.00
2016,10,07,01,08,37.00
2016,10,07,01,09,37.00
2016,10,07,01,10,38.60
2016,10,07,01,11,27.40
2016,10,07,01,12,25.70
2016,10,07,01,13,27.40
2016,10,07,01,14,25.70
2016,10,07,02,06,3.20
2016,10,07,02,07,3.20
2016,10,07,02,08,4.80
2016,10,07,02,09,1.60
2016,10,07,02,10,1.60
2016,10,07,02,11,1.60
2016,10,07,02,12,1.60
2016,10,07,02,13,1.60
2016,10,07,02,14,1.60
2016,10,07,02,15,4.80
2016,10,07,02,16,3.20
2016,10,07,02,17,1.60
2016,10,07,02,18,1.60
2016,10,07,02,20,1.60
2016,10,07,02,21,1.60
2016,10,07,02,22,1.60
2016,10,07,02,23,1.60
2016,10,07,02,24,1.60
2016,10,07,02,25,1.60
2016,10,07,02,26,1.60
2016,10,07,02,27,1.60
2016,10,07,02,28,1.60
2016,10,07,02,29,1.60
2016,10,07,02,30,3.20
2016,10,07,02,31,1.60
2016,10,07,02,32,3.20
2016,10,07,02,33,1.60
2016,10,07,02,34,1.60
2016,10,07,02,35,1.60
2016,10,07,02,36,3.20
2016,10,07,02,37,3.20
2016,10,07,02,38,4.80
2016,10,07,02,39,3.20
2016,10,07,02,40,3.20
2016,10,07,02,42,1.60
2016,10,07,02,43,3.20
2016,10,07,02,44,3.20
2016,10,07,02,45,3.20
2016,10,07,02,46,3.20
2016,10,07,02,47,3.20
2016,10,07,02,48,3.20
2016,10,07,02,49,1.60
2016,10,07,02,50,1.60
2016,10,07,02,51,3.20
2016,10,07,02,52,3.20
2016,10,07,02,53,1.60
2016,10,07,02,54,3.20
2016,10,07,02,55,3.20
2016,10,07,02,56,3.20
2016,10,07,02,57,3.20
2016,10,07,02,58,4.80
2016,10,07,02,59,3.20
2016,10,07,03,00,3.20
2016,10,07,03,01,1.60
2016,10,07,10,04,1.60
2016,10,07,10,05,3.20
2016,10,07,10,06,3.20
2016,10,07,10,07,1.60
2016,10,07,10,09,1.60
2016,10,07,10,10,1.60
2016,10,07,10,11,4.80
2016,10,07,10,12,3.20
2016,10,07,10,13,4.80
2016,10,07,10,14,3.20
2016,10,07,10,15,4.80
2016,10,07,10,16,1.60
2016,10,07,10,17,4.80
2016,10,07,10,18,4.80
2016,10,07,10,19,3.20
2016,10,07,10,20,3.20
2016,10,07,10,21,3.20
2016,10,07,10,22,4.80
2016,10,07,10,23,6.40
2016,10,07,10,24,4.80
2016,10,07,10,25,4.80
2016,10,07,10,26,4.80
2016,10,07,10,27,4.80
2016,10,07,10,28,8.10
2016,10,07,10,29,11.30
2016,10,07,10,30,6.40
2016,10,07,10,31,6.40
2016,10,07,10,32,6.40
2016,10,07,10,33,4.80
2016,10,07,10,34,4.80
2016,10,07,10,35,1.60
2016,10,07,10,36,1.60
2016,10,07,10,37,6.40
2016,10,07,10,38,6.40
2016,10,07,10,39,6.40
2016,10,07,10,40,9.60
2016,10,07,10,41,8.10
2016,10,07,10,42,4.80
2016,10,07,10,43,6.40
2016,10,07,10,44,6.40
2016,10,07,10,45,4.80
2016,10,07,10,46,6.40
2016,10,07,10,47,8.10
2016,10,07,10,48,4.80
2016,10,07,10,49,4.80
2016,10,07,10,50,11.30
2016,10,07,10,51,6.40
2016,10,07,10,52,4.80
2016,10,07,10,53,4.80
2016,10,07,10,54,1.60
2016,10,07,10,55,3.20
2016,10,07,10,56,1.60
2016,10,07,10,57,1.60
2016,10,07,10,58,3.20
2016,10,07,10,59,1.60
2016,10,07,11,00,4.80
2016,10,07,11,01,3.20
2016,10,07,11,02,4.80
2016,10,07,11,03,3.20
2016,10,07,11,04,3.20
2016,10,07,11,05,3.20
2016,10,07,11,06,8.10
2016,10,07,11,07,4.80
2016,10,07,11,08,3.20
2016,10,07,11,09,6.40
2016,10,07,11,10,6.40
2016,10,07,11,11,4.80
2016,10,07,11,12,6.40
2016,10,07,11,13,3.20
2016,10,07,11,14,3.20
2016,10,07,11,15,3.20
2016,10,07,11,16,1.60
2016,10,07,11,17,1.60
2016,10,07,11,18,4.80
2016,10,07,11,19,4.80
2016,10,07,11,20,3.20
2016,10,07,11,21,3.20
2016,10,07,11,22,3.20
2016,10,07,11,23,3.20
2016,10,07,11,24,6.40
2016,10,07,11,25,3.20
2016,10,07,11,26,11.30
2016,10,07,11,27,12.90
2016,10,07,11,28,6.40
2016,10,07,11,29,6.40
2016,10,07,11,30,6.40
2016,10,07,11,31,6.40
2016,10,07,11,32,3.20
2016,10,07,11,33,4.80
2016,10,07,11,34,3.20
2016,10,07,11,35,4.80
2016,10,07,11,36,6.40
2016,10,07,11,37,9.60
2016,10,07,11,38,6.40
2016,10,07,11,39,11.30
2016,10,07,11,40,4.80
2016,10,07,11,41,8.10
2016,10,07,11,42,11.30
2016,10,07,11,43,14.50
2016,10,07,11,44,8.10
2016,10,07,11,45,6.40
2016,10,07,11,46,4.80
2016,10,07,11,47,11.30
2016,10,07,11,48,9.60
2016,10,07,11,49,8.10
2016,10,07,11,50,11.30
2016,10,07,11,51,6.40
2016,10,07,11,52,8.10
2016,10,07,11,53,4.80
2016,10,07,11,54,4.80
2016,10,07,11,55,4.80
2016,10,07,11,56,8.10
2016,10,07,11,57,3.20
2016,10,07,11,58,3.20
2016,10,07,11,59,4.80
2016,10,07,12,00,4.80
2016,10,07,12,01,4.80
2016,10,07,12,02,3.20
2016,10,07,12,03,1.60
2016,10,07,12,04,4.80
2016,10,07,12,05,6.40
2016,10,07,12,06,6.40
2016,10,07,12,07,3.20
2016,10,07,12,08,6.40
2016,10,07,12,09,1.60
2016,10,07,12,10,3.20
2016,10,07,12,11,4.80
2016,10,07,12,12,4.80
2016,10,07,12,13,6.40
2016,10,07,12,14,4.80
2016,10,07,12,15,3.20
2016,10,07,12,16,6.40
2016,10,07,12,17,6.40
2016,10,07,12,18,4.80
2016,10,07,12,19,4.80
2016,10,07,12,20,8.10
2016,10,07,12,21,9.60
2016,10,07,12,22,6.40
2016,10,07,12,23,8.10
2016,10,07,12,24,12.90
2016,10,07,12,25,6.40
2016,10,07,12,26,8.10
2016,10,07,12,27,8.10
2016,10,07,12,28,9.60
2016,10,07,12,29,6.40
2016,10,07,12,30,8.10
2016,10,07,12,31,4.80
2016,10,07,12,32,6.40
2016,10,07,12,33,6.40
2016,10,07,12,34,3.20
2016,10,07,12,35,4.80
2016,10,07,12,36,8.10
2016,10,07,12,37,3.20
2016,10,07,12,38,3.20
2016,10,07,12,39,9.60
2016,10,07,12,40,9.60
2016,10,07,12,41,11.30
2016,10,07,12,42,8.10
2016,10,07,12,43,6.40
2016,10,07,12,44,3.20
2016,10,07,12,45,6.40
2016,10,07,12,46,6.40
2016,10,07,12,47,4.80
2016,10,07,12,48,4.80
2016,10,07,12,49,9.60
2016,10,07,12,50,6.40
2016,10,07,12,51,12.90
2016,10,07,12,52,14.50
2016,10,07,12,53,8.10
2016,10,07,12,54,14.50
2016,10,07,12,55,12.90
2016,10,07,12,56,12.90
2016,10,07,12,57,14.50
2016,10,07,12,58,8.10
2016,10,07,12,59,6.40
2016,10,07,13,00,4.80
2016,10,07,13,01,6.40
2016,10,07,13,02,12.90
2016,10,07,13,03,8.10
2016,10,07,13,04,6.40
2016,10,07,13,05,8.10
2016,10,07,13,06,8.10
2016,10,07,13,07,8.10
2016,10,07,13,08,8.10
2016,10,07,13,09,12.90
2016,10,07,13,10,6.40
2016,10,07,13,11,3.20
2016,10,07,13,12,4.80
2016,10,07,13,13,9.60
2016,10,07,13,14,12.90
2016,10,07,13,15,11.30
2016,10,07,13,16,11.30
2016,10,07,13,17,9.60
2016,10,07,13,18,3.20
2016,10,07,13,19,3.20
2016,10,07,13,20,1.60
2016,10,07,13,21,3.20
2016,10,07,13,22,4.80
2016,10,07,13,23,6.40
2016,10,07,13,24,9.60
2016,10,07,13,25,11.30
2016,10,07,13,26,6.40
2016,10,07,13,27,11.30
2016,10,07,13,28,4.80
2016,10,07,13,29,11.30
2016,10,07,13,30,11.30
2016,10,07,13,31,6.40
2016,10,07,13,32,8.10
2016,10,07,13,33,9.60
2016,10,07,13,34,8.10
2016,10,07,13,35,4.80
2016,10,07,13,36,4.80
2016,10,07,13,37,3.20
2016,10,07,13,38,6.40
2016,10,07,13,39,8.10
2016,10,07,13,40,3.20
2016,10,07,13,41,6.40
2016,10,07,13,42,12.90
2016,10,07,13,43,12.90
2016,10,07,13,44,6.40
2016,10,07,13,45,12.90
2016,10,07,13,46,12.90
2016,10,07,13,47,9.60
2016,10,07,13,48,12.90
2016,10,07,13,49,12.90
2016,10,07,13,50,9.60
2016,10,07,13,51,11.30
2016,10,07,13,52,3.20
2016,10,07,13,53,9.60
2016,10,07,13,54,4.80
2016,10,07,13,55,3.20
2016,10,07,13,56,4.80
2016,10,07,13,57,4.80
2016,10,07,13,58,4.80
2016,10,07,13,59,4.80
2016,10,07,14,00,4.80
2016,10,07,14,01,4.80
2016,10,07,14,02,1.60
2016,10,07,14,03,4.80
2016,10,07,14,04,6.40
2016,10,07,14,05,12.90
2016,10,07,14,06,8.10
2016,10,07,14,07,6.40
2016,10,07,14,08,3.20
2016,10,07,14,09,3.20
2016,10,07,14,10,4.80
2016,10,07,14,11,8.10
2016,10,07,14,12,8.10
2016,10,07,14,13,4.80
2016,10,07,14,14,6.40
2016,10,07,14,15,4.80
2016,10,07,14,16,6.40
2016,10,07,14,17,12.90
2016,10,07,14,18,12.90
2016,10,07,14,19,11.30
2016,10,07,14,20,6.40
2016,10,07,14,21,8.10
2016,10,07,14,22,6.40
2016,10,07,14,23,6.40
2016,10,07,14,24,4.80
2016,10,07,14,25,12.90
2016,10,07,14,26,11.30
2016,10,07,14,27,6.40
2016,10,07,14,28,11.30
2016,10,07,14,29,12.90
2016,10,07,14,30,14.50
2016,10,07,14,31,12.90
2016,10,07,14,32,4.80
2016,10,07,14,33,3.20
2016,10,07,14,34,6.40
2016,10,07,14,35,11.30
2016,10,07,14,36,4.80
2016,10,07,14,37,4.80
2016,10,07,14,38,3.20
2016,10,07,14,39,1.60
2016,10,07,14,40,1.60
2016,10,07,14,41,6.40
2016,10,07,14,42,3.20
2016,10,07,14,43,3.20
2016,10,07,14,44,4.80
2016,10,07,14,45,4.80
2016,10,07,14,46,4.80
2016,10,07,14,47,4.80
2016,10,07,14,48,9.60
2016,10,07,14,49,6.40
2016,10,07,14,50,9.60
2016,10,07,14,51,14.50
2016,10,07,14,52,9.60
2016,10,07,14,53,11.30
2016,10,07,14,54,6.40
2016,10,07,14,55,11.30
2016,10,07,14,56,12.90
2016,10,07,14,57,11.30
2016,10,07,14,58,9.60
2016,10,07,14,59,6.40
2016,10,07,15,00,11.30
2016,10,07,15,01,8.10
2016,10,07,15,02,8.10
2016,10,07,15,03,9.60
2016,10,07,15,04,4.80
2016,10,07,15,05,12.90
2016,10,07,15,06,6.40
2016,10,07,15,07,4.80
2016,10,07,15,08,4.80
2016,10,07,15,09,3.20
2016,10,07,15,10,4.80
2016,10,07,15,11,6.40
2016,10,07,15,12,6.40
2016,10,07,15,13,6.40
2016,10,07,15,14,9.60
2016,10,07,15,15,11.30
2016,10,07,15,16,12.90
2016,10,07,15,17,9.60
2016,10,07,15,18,9.60
2016,10,07,15,19,9.60
2016,10,07,15,20,9.60
2016,10,07,15,21,14.50
2016,10,07,15,22,6.40
2016,10,07,15,23,12.90
2016,10,07,15,24,3.20
2016,10,07,15,25,3.20
2016,10,07,15,26,6.40
2016,10,07,15,27,6.40
2016,10,07,15,28,6.40
2016,10,07,15,29,6.40
2016,10,07,15,30,8.10
2016,10,07,15,31,6.40
2016,10,07,15,32,3.20
2016,10,07,15,33,3.20
2016,10,07,15,34,9.60
2016,10,07,15,35,6.40
2016,10,07,15,36,3.20
2016,10,07,15,37,3.20
2016,10,07,15,38,3.20
2016,10,07,15,39,6.40
2016,10,07,15,40,6.40
2016,10,07,15,41,12.90
2016,10,07,15,42,11.30
2016,10,07,15,43,14.50
2016,10,07,15,44,12.90
2016,10,07,15,45,12.90
2016,10,07,15,46,12.90
2016,10,07,15,47,8.10
2016,10,07,15,48,9.60
2016,10,07,15,49,9.60
2016,10,07,15,50,6.40
2016,10,07,15,51,9.60
2016,10,07,15,52,11.30
2016,10,07,15,53,11.30
2016,10,07,15,54,11.30
2016,10,07,15,55,8.10
2016,10,07,15,56,11.30
2016,10,07,15,57,11.30
2016,10,07,15,58,12.90
2016,10,07,15,59,9.60
2016,10,07,16,00,8.10
2016,10,07,16,01,8.10
2016,10,07,16,02,6.40
2016,10,07,16,03,6.40
2016,10,07,16,04,6.40
2016,10,07,16,05,6.40
2016,10,07,16,06,9.60
2016,10,07,16,07,12.90
2016,10,07,16,08,4.80
2016,10,07,16,09,6.40
2016,10,07,16,10,6.40
2016,10,07,16,11,4.80
2016,10,07,16,12,12.90
2016,10,07,16,13,11.30
2016,10,07,16,14,12.90
2016,10,07,16,15,14.50
2016,10,07,16,16,9.60
2016,10,07,16,17,12.90
2016,10,07,16,18,11.30
2016,10,07,16,19,4.80
2016,10,07,16,20,8.10
2016,10,07,16,21,8.10
2016,10,07,16,22,6.40
2016,10,07,16,23,9.60
2016,10,07,16,24,9.60
2016,10,07,16,25,8.10
2016,10,07,16,26,11.30
2016,10,07,16,27,6.40
2016,10,07,16,28,6.40
2016,10,07,16,29,9.60
2016,10,07,16,30,4.80
2016,10,07,16,31,11.30
2016,10,07,16,32,9.60
2016,10,07,16,33,11.30
2016,10,07,16,34,12.90
2016,10,07,16,35,11.30
2016,10,07,16,36,11.30
2016,10,07,16,37,11.30
2016,10,07,16,38,8.10
2016,10,07,16,39,6.40
2016,10,07,16,40,4.80
2016,10,07,16,41,3.20
2016,10,07,16,42,6.40
2016,10,07,16,43,4.80
2016,10,07,16,44,1.60
2016,10,07,16,45,3.20
2016,10,07,16,46,3.20
2016,10,07,16,47,3.20
2016,10,07,16,48,1.60
2016,10,07,16,49,3.20
2016,10,07,16,50,1.60
2016,10,07,16,51,3.20
2016,10,07,16,52,3.20
2016,10,07,16,53,1.60
2016,10,07,16,54,6.40
2016,10,07,16,55,4.80
2016,10,07,16,56,4.80
2016,10,07,16,57,4.80
2016,10,07,16,58,4.80
2016,10,07,16,59,1.60
2016,10,07,17,00,1.60
2016,10,07,17,01,1.60
2016,10,07,17,02,1.60
2016,10,07,17,03,4.80
2016,10,07,17,04,4.80
2016,10,07,17,05,4.80
2016,10,07,17,06,6.40
2016,10,07,17,07,1.60
2016,10,07,17,08,4.80
2016,10,07,17,09,4.80
2016,10,07,17,10,4.80
2016,10,07,17,11,6.40
2016,10,07,17,12,4.80
2016,10,07,17,13,3.20
2016,10,07,17,14,1.60
2016,10,07,17,15,1.60
2016,10,07,17,16,1.60
2016,10,07,17,17,1.60
2016,10,07,17,18,6.40
2016,10,07,17,19,6.40
2016,10,07,17,20,6.40
2016,10,07,17,21,4.80
2016,10,07,17,22,3.20
2016,10,07,17,23,3.20
2016,10,07,17,24,1.60
2016,10,07,17,25,3.20
2016,10,07,17,26,3.20
2016,10,07,17,27,3.20
2016,10,07,17,28,4.80
2016,10,07,17,29,1.60
2016,10,07,17,30,3.20
2016,10,07,17,31,1.60
2016,10,07,17,32,4.80
2016,10,07,17,33,3.20
2016,10,07,17,34,4.80
2016,10,07,17,35,1.60
2016,10,07,17,36,3.20
2016,10,07,17,37,3.20
2016,10,07,17,38,4.80
2016,10,07,17,39,3.20
2016,10,07,17,40,1.60
2016,10,07,17,41,1.60
2016,10,07,17,42,1.60
2016,10,07,17,43,1.60
2016,10,07,17,44,1.60
2016,10,07,17,45,1.60
2016,10,07,17,46,1.60
2016,10,07,17,47,3.20
2016,10,07,17,48,3.20
2016,10,07,17,49,1.60
2016,10,07,17,50,3.20
2016,10,07,17,51,3.20
2016,10,07,17,52,1.60
2016,10,07,17,53,1.60
2016,10,07,17,54,1.60
2016,10,07,17,55,1.60
2016,10,07,17,56,1.60
2016,10,07,17,57,1.60
2016,10,07,17,58,1.60
2016,10,07,17,59,1.60
2016,10,07,18,00,1.60
2016,10,07,18,01,1.60
2016,10,07,18,02,1.60
2016,10,07,18,03,1.60
2016,10,07,18,04,1.60
2016,10,07,18,05,1.60
2016,10,07,18,06,1.60
2016,10,07,18,07,1.60
2016,10,07,18,21,1.60
2016,10,07,18,22,3.20
2016,10,07,18,23,3.20
2016,10,07,18,24,3.20
2016,10,07,18,25,1.60
2016,10,07,18,26,1.60
2016,10,07,18,28,1.60
2016,10,07,18,30,1.60
2016,10,07,18,31,1.60
2016,10,07,18,32,1.60
2016,10,07,18,33,1.60
2016,10,07,18,34,1.60
2016,10,07,18,35,1.60
2016,10,07,18,36,3.20
2016,10,07,18,37,3.20
2016,10,07,18,38,3.20
2016,10,07,18,39,3.20
2016,10,07,18,40,3.20
2016,10,07,18,41,1.60
2016,10,07,18,42,1.60
2016,10,07,18,43,1.60
2016,10,07,18,44,1.60
2016,10,07,18,46,1.60
2016,10,07,18,47,1.60
2016,10,07,18,50,3.20
2016,10,07,18,51,3.20
2016,10,07,18,52,1.60
2016,10,07,18,53,3.20
2016,10,07,18,54,1.60
2016,10,07,18,55,1.60
2016,10,07,18,56,1.60
2016,10,07,18,57,3.20
2016,10,07,18,58,3.20
2016,10,07,18,59,4.80
2016,10,07,19,00,6.40
2016,10,07,19,01,4.80
2016,10,07,19,02,4.80
2016,10,07,19,03,6.40
2016,10,07,19,04,4.80
2016,10,07,19,05,3.20
2016,10,07,19,06,3.20
2016,10,07,19,07,6.40
2016,10,07,19,08,6.40
2016,10,07,19,09,3.20
2016,10,07,19,10,3.20
2016,10,07,19,11,6.40
2016,10,07,19,12,3.20
2016,10,07,19,13,3.20
2016,10,07,19,14,3.20
2016,10,07,19,15,4.80
2016,10,07,19,16,6.40
2016,10,07,19,17,4.80
2016,10,07,19,18,8.10
2016,10,07,19,19,8.10
2016,10,07,19,20,6.40
2016,10,07,19,21,9.60
2016,10,07,19,22,8.10
2016,10,07,19,23,6.40
2016,10,07,19,24,9.60
2016,10,07,19,25,8.10
2016,10,07,19,26,6.40
2016,10,07,19,27,9.60
2016,10,07,19,28,9.60
2016,10,07,19,29,8.10
2016,10,07,19,30,6.40
2016,10,07,19,31,4.80
2016,10,07,19,32,6.40
2016,10,07,19,33,4.80
2016,10,07,19,34,1.60
2016,10,07,19,35,4.80
2016,10,07,19,36,4.80
2016,10,07,19,37,3.20
2016,10,07,19,38,4.80
2016,10,07,19,39,4.80
2016,10,07,19,40,4.80
2016,10,07,19,41,4.80
2016,10,07,19,42,4.80
2016,10,07,19,43,3.20
2016,10,07,19,44,3.20
2016,10,07,19,45,3.20
2016,10,07,19,46,6.40
2016,10,07,19,47,6.40
2016,10,07,19,48,3.20
2016,10,07,19,49,4.80
2016,10,07,19,50,4.80
2016,10,07,19,51,4.80
2016,10,07,19,52,4.80
2016,10,07,19,53,4.80
2016,10,07,19,54,4.80
2016,10,07,19,55,1.60
2016,10,07,19,56,3.20
2016,10,07,19,57,3.20
2016,10,07,19,58,3.20
2016,10,07,19,59,3.20
2016,10,07,20,00,4.80
2016,10,07,20,01,4.80
2016,10,07,20,02,3.20
2016,10,07,20,03,3.20
2016,10,07,20,04,3.20
2016,10,07,20,05,3.20
2016,10,07,20,06,3.20
2016,10,07,20,07,1.60
2016,10,07,20,08,1.60
2016,10,07,20,09,1.60
2016,10,07,20,10,1.60
2016,10,07,20,24,1.60
2016,10,07,20,25,3.20
2016,10,07,20,26,3.20
2016,10,07,20,27,3.20
2016,10,07,20,28,3.20
2016,10,07,20,29,3.20
2016,10,07,20,30,3.20
2016,10,07,20,31,3.20
2016,10,07,20,32,3.20
2016,10,07,20,33,3.20
2016,10,07,20,34,3.20
2016,10,07,20,35,3.20
2016,10,07,20,36,6.40
2016,10,07,20,37,3.20
2016,10,07,20,38,6.40
2016,10,07,20,39,8.10
2016,10,07,20,40,6.40
2016,10,07,20,41,4.80
2016,10,07,20,42,8.10
2016,10,07,20,43,4.80
2016,10,07,20,44,4.80
2016,10,07,20,45,4.80
2016,10,07,20,46,8.10
2016,10,07,20,47,4.80
2016,10,07,20,48,6.40
2016,10,07,20,49,6.40
2016,10,07,20,50,4.80
2016,10,07,20,51,4.80
2016,10,07,20,52,6.40
2016,10,07,20,53,6.40
2016,10,07,20,54,4.80
2016,10,07,20,55,8.10
2016,10,07,20,56,6.40
2016,10,07,20,57,6.40
2016,10,07,20,58,8.10
2016,10,07,20,59,4.80
2016,10,07,21,00,8.10
2016,10,07,21,01,8.10
2016,10,07,21,02,6.40
2016,10,07,21,03,8.10
2016,10,07,21,04,6.40
2016,10,07,21,05,4.80
2016,10,07,21,06,6.40
2016,10,07,21,07,4.80
2016,10,07,21,08,6.40
2016,10,07,21,09,4.80
2016,10,07,21,10,4.80
2016,10,07,21,11,4.80
2016,10,07,21,12,6.40
2016,10,07,21,13,6.40
2016,10,07,21,14,3.20
2016,10,07,21,15,4.80
2016,10,07,21,16,3.20
2016,10,07,21,17,1.60
2016,10,07,21,18,1.60
2016,10,07,21,19,3.20
2016,10,07,21,20,3.20
2016,10,07,21,21,3.20
2016,10,07,21,22,1.60
2016,10,07,21,23,1.60
2016,10,07,21,24,1.60
2016,10,07,21,26,1.60
2016,10,07,21,27,1.60
2016,10,07,21,28,1.60
2016,10,07,21,29,1.60
2016,10,07,21,44,1.60
2016,10,07,21,45,3.20
2016,10,07,21,46,3.20
2016,10,07,21,47,3.20
2016,10,07,21,48,4.80
2016,10,07,21,49,4.80
2016,10,07,21,50,4.80
2016,10,07,21,51,3.20
2016,10,07,21,52,3.20
2016,10,07,21,53,1.60
2016,10,07,21,55,1.60
2016,10,07,21,56,1.60
2016,10,07,21,57,3.20
2016,10,07,21,58,3.20
2016,10,07,21,59,3.20
2016,10,07,22,00,1.60
2016,10,07,22,01,1.60
2016,10,07,22,02,1.60
2016,10,07,22,03,1.60
2016,10,07,22,06,1.60
2016,10,07,22,07,1.60
2016,10,07,22,08,3.20
2016,10,07,22,09,3.20
2016,10,07,22,10,1.60
2016,10,07,22,11,1.60
2016,10,07,22,18,1.60
2016,10,07,22,19,1.60
2016,10,07,22,20,1.60
2016,10,07,22,21,3.20
2016,10,07,22,22,3.20
2016,10,07,22,23,3.20
2016,10,07,22,24,1.60
2016,10,07,22,26,1.60
2016,10,07,22,27,1.60
2016,10,07,22,28,1.60
2016,10,07,22,29,3.20
2016,10,07,22,30,3.20
2016,10,07,22,31,1.60
2016,10,07,22,32,1.60
2016,10,07,22,34,1.60
2016,10,07,22,39,1.60
2016,10,07,22,40,3.20
2016,10,07,22,41,1.60
2016,10,07,22,42,3.20
2016,10,07,22,43,1.60
2016,10,07,22,46,1.60
2016,10,07,22,47,1.60
2016,10,07,22,54,1.60
2016,10,07,22,55,1.60
2016,10,07,22,56,3.20
2016,10,07,22,57,3.20
2016,10,07,22,58,1.60
2016,10,07,23,00,1.60
2016,10,07,23,01,3.20
2016,10,07,23,02,3.20
2016,10,07,23,03,1.60
2016,10,07,23,16,1.60
2016,10,07,23,17,1.60
2016,10,07,23,18,3.20
2016,10,07,23,19,1.60
2016,10,07,23,20,1.60
2016,10,07,23,24,1.60
2016,10,07,23,25,3.20
2016,10,07,23,26,3.20
2016,10,07,23,27,3.20
2016,10,07,23,28,1.60
2016,10,07,23,29,1.60
2016,10,07,23,31,1.60
2016,10,07,23,32,3.20
2016,10,07,23,33,3.20
2016,10,07,23,34,3.20
2016,10,07,23,35,3.20
2016,10,07,23,36,1.60
2016,10,07,23,54,3.20
2016,10,07,23,55,1.60
2016,10,07,23,56,3.20
2016,10,07,23,57,1.60
